EW2077 Weather Reports


Display with metric or nautical units.
time (UTC)temp
F
wind
direction
speed
MPH
gust
MPH
rain 1hr
in
rain 24hr
in
rain mn
in
humidity
%
barometer
mb
20260505113012 33 200 0.0 5.0 0.00 0.00 0.00 92 1032.5
20260505111515 34 206 2.0 6.0 0.00 0.00 0.00 92 1032.2
20260505101556 38 210 0.0 1.0 0.00 0.00 0.00 92 1031.3
20260505100054 39 210 0.0 0.0 0.00 0.00 0.00 92 1031.3
20260505094552 39 210 0.0 0.0 0.00 0.00 0.00 92 1031.1
20260505093058 39 210 0.0 0.0 0.00 0.00 0.00 92 1031.5
20260505091602 39 210 0.0 0.0 0.00 0.00 0.00 92 1031.5
20260505090049 39 210 0.0 0.0 0.00 0.00 0.00 92 1031.3
20260505084549 39 210 0.0 0.0 0.00 0.00 0.00 92 1031.3
20260505083054 39 210 0.0 0.0 0.00 0.00 0.00 92 1031.6
20260505081546 39 210 0.0 0.0 0.00 0.00 0.00 92 1031.7
20260505080046 39 210 0.0 0.0 0.00 0.00 0.00 92 1031.6
20260505074544 39 210 0.0 0.0 0.00 0.00 0.00 92 1031.5
20260505073052 39 210 0.0 0.0 0.00 0.00 0.00 92 1031.6
20260505071554 39 210 0.0 0.0 0.00 0.00 0.00 91 1031.6
20260505070044 39 210 0.0 0.0 0.00 0.00 0.00 91 1031.6
20260505064542 39 210 0.0 0.0 0.00 0.00 0.00 92 1031.7
20260505063040 39 210 0.0 0.0 0.00 0.00 0.00 91 1031.5
20260505061637 39 210 0.0 0.0 0.00 0.00 0.00 91 1031.6
20260505060045 39 210 0.0 0.0 0.00 0.00 0.00 91 1031.5
20260505054536 39 210 0.0 0.0 0.00 0.00 0.00 91 1031.7
20260505053033 39 210 0.0 0.0 0.00 0.00 0.00 91 1031.6
20260505051539 39 210 0.0 0.0 0.00 0.00 0.00 91 1031.6
20260505041530 40 210 0.0 0.0 0.00 0.00 0.00 90 1031.8
20260505040030 41 210 0.0 1.0 0.00 0.00 0.00 90 1031.7
20260505034529 42 208 0.0 0.0 0.00 0.00 0.00 90 1031.7
20260505033029 42 208 0.0 0.0 0.00 0.00 0.00 90 1031.9
20260505031529 43 208 0.0 0.0 0.00 0.00 0.00 90 1031.8
20260505030028 43 208 0.0 0.0 0.00 0.00 0.00 89 1031.3
20260505024526 43 208 0.0 0.0 0.00 0.00 0.00 89 1030.9
20260505023028 43 208 0.0 0.0 0.00 0.00 0.00 89 1030.6
20260505021529 43 208 0.0 0.0 0.00 0.00 0.00 89 1030.1
20260505020025 44 208 0.0 0.0 0.00 0.00 0.00 88 1029.7
20260505014525 44 208 0.0 0.0 0.00 0.00 0.00 88 1029.6
20260505013024 44 208 0.0 0.0 0.00 0.00 0.00 88 1029.4
20260505011525 44 208 0.0 0.0 0.00 0.00 0.00 87 1029.7
20260505010022 44 208 0.0 0.0 0.00 0.00 0.00 87 1029.8
20260505004525 45 208 0.0 0.0 0.00 0.00 0.00 86 1029.4
20260505003021 45 208 0.0 0.0 0.00 0.00 0.00 87 1029.7
20260505001520 45 208 0.0 0.0 0.00 0.00 0.00 85 1030.2
20260505000024 46 208 0.0 3.0 0.00 0.00 0.00 78 1030.4
20260504234515 48 205 0.0 0.0 0.00 0.00 0.00 72 1029.9
20260504233014 50 205 0.0 0.0 0.00 0.00 0.00 58 1029.5
20260504231512 51 206 0.0 6.0 0.00 0.00 0.00 55 1029.0
20260504230013 52 198 0.0 3.0 0.00 0.00 0.00 52 1029.0
20260504224509 53 208 0.0 3.0 0.00 0.00 0.00 49 1028.6
20260504223010 54 210 0.0 7.0 0.00 0.00 0.00 45 1028.3
20260504221508 56 194 1.0 6.0 0.00 0.00 0.00 39 1027.6
20260504220009 58 188 2.0 7.0 0.00 0.00 0.00 37 1027.5
20260504214512 60 202 0.0 0.0 0.00 0.00 0.00 36 1027.3
20260504213006 60 202 0.0 3.0 0.00 0.00 0.00 36 1027.3
20260504211507 60 202 0.0 2.0 0.00 0.00 0.00 36 1027.4
20260504210003 59 202 0.0 3.0 0.00 0.00 0.00 35 1027.7
20260504204501 60 169 1.0 4.0 0.00 0.00 0.00 39 1027.9
20260504203106 58 111 1.0 7.0 0.00 0.00 0.00 40 1028.2
20260504201621 57 213 0.0 8.0 0.00 0.00 0.00 43 1028.7
20260504200057 55 200 1.0 6.0 0.00 0.00 0.00 50 1028.9
20260504194602 56 159 1.0 11.0 0.00 0.00 0.00 44 1029.2
20260504193104 57 188 0.0 3.0 0.00 0.00 0.00 42 1029.0
20260504191601 56 207 0.0 5.0 0.00 0.00 0.00 43 1028.6
20260504190114 56 213 1.0 6.0 0.00 0.00 0.00 41 1029.0
20260504184618 55 167 2.0 7.0 0.00 0.00 0.00 45 1029.2
20260504183054 55 36 1.0 7.0 0.00 0.00 0.00 40 1029.2
20260504181553 58 5 0.0 6.0 0.00 0.00 0.00 32 1028.8
20260504180054 59 176 0.0 4.0 0.00 0.00 0.00 33 1028.4
20260504174553 60 212 0.0 8.0 0.00 0.00 0.00 31 1028.3
20260504173051 63 195 0.0 7.0 0.00 0.00 0.00 29 1028.5
20260504171550 62 163 0.0 5.0 0.00 0.00 0.00 31 1028.8
20260504120119 38 199 0.0 0.0 0.00 0.00 0.00 54 1030.7